Weather History for Pian Rosa, Italy

Change the Weather History Date:

Wednesday, November 30, 2011

  Actual Average Record
Temperature  
Mean Temperature 26 °F -  
Max Temperature 28 °F 19 °F 44 °F (1997)
Min Temperature 23 °F 9 °F -2 °F (2010)
Degree Days  
Heating Degree Days 40    
Moisture  
Dew Point 5 °F    
Average Humidity 39    
Maximum Humidity 54    
Minimum Humidity 15    
Precipitation  
Precipitation 0.00 in - - ()
Sea Level Pressure  
Sea Level Pressure 30.36 in    
Wind  
Wind Speed 3 mph ()    
Max Wind Speed 8 mph    
Max Gust Speed -    
Visibility 7.9 miles    
Events      
Averages and records for this station are not official NWS values.
T = Trace of Precipitation, MM = Missing Value Source: Averaged Metar Reports

Daily Weather History Graph

Daily Weather History Graph

Search for Another Location

Airport:

Trip Planner

Search our weather history database for the weather conditions in past years. The results will help you decide how hot, cold, wet, or windy it might be!

Date:

Astronomy

Nov. 30, 2011 Rise Set
Actual Time 7:48 AM CET 4:46 PM CET
Civil Twilight 7:14 AM CET 5:20 PM CET
Nautical Twilight 6:37 AM CET 5:57 PM CET
Astronomical Twilight 6:01 AM CET 6:33 PM CET
Moon 11:50 AM CET (11/30) 10:36 PM CET (11/30)
Length of Visible Light 10h 05m
Length of Day
8h 57m
Waxing Crescent, 31% of the Moon is Illuminated
Nov 30
Waxing Crescent
Dec 2
First Quarter
Dec 10
Full
Dec 18
Last Quarter
Dec 24
New

Hourly Weather History & Observations

Time (CET) Temp. Windchill Dew Point Humidity Pressure Visibility Wind Dir Wind Speed Gust Speed Precip Events Conditions
12:55 AM 26.6 °F - 6.8 °F 43% 30.33 in 6.2 mi Calm Calm - N/A   Partly Cloudy
1:00 AM 27 °F - 7 °F 27%  in 12 mi Calm Calm - -   Scattered Clouds
1:55 AM 26.6 °F - 5.0 °F 40% 30.33 in 6.2 mi Calm Calm - N/A   Partly Cloudy
2:55 AM 26.6 °F 19.1 °F 6.8 °F 43% 30.33 in 6.2 mi ENE 6.9 mph - N/A   Partly Cloudy
3:55 AM 24.8 °F 19.1 °F 6.8 °F 46% 30.33 in 6.2 mi ENE 4.6 mph - N/A   Partly Cloudy
4:00 AM 25 °F - 6 °F 30%  in 12 mi ENE 4.6 mph - -   Scattered Clouds
4:55 AM 24.8 °F 19.1 °F 6.8 °F 46% 30.33 in 6.2 mi ENE 4.6 mph - N/A   Partly Cloudy
5:55 AM 24.8 °F 16.9 °F 6.8 °F 46% 30.33 in 6.2 mi ENE 6.9 mph - N/A   Partly Cloudy
6:55 AM 24.8 °F - 6.8 °F 46% 30.36 in 6.2 mi Calm Calm - N/A   Partly Cloudy
7:00 AM 25 °F - 6 °F 30%  in 16 mi Calm Calm - -   Scattered Clouds
7:55 AM 24.8 °F - 8.6 °F 50% 30.36 in 6.2 mi Calm Calm - N/A   Partly Cloudy
8:55 AM 24.8 °F - 10.4 °F 54% 30.36 in 6.2 mi Calm Calm - N/A   Partly Cloudy
10:00 AM 26 °F - 11 °F 39%  in 31 mi SW 5.8 mph - -   Scattered Clouds
10:55 AM 26.6 °F 20.0 °F 10.4 °F 51% 30.39 in - SW 5.8 mph - N/A   Clear
11:55 AM 28.4 °F 21.2 °F 10.4 °F 47% 30.39 in 6.2 mi SW 6.9 mph - N/A   Partly Cloudy
12:55 PM 28.4 °F 21.2 °F 8.6 °F 43% 30.39 in 6.2 mi SW 6.9 mph - N/A   Partly Cloudy
1:00 PM 28 °F - 8 °F 29%  in 31 mi SW 6.9 mph - -   Scattered Clouds
1:55 PM 26.6 °F 20.0 °F 5.0 °F 40% 30.39 in 6.2 mi WSW 5.8 mph - N/A   Partly Cloudy
3:55 PM 26.6 °F 21.2 °F -0.4 °F 31% 30.36 in - SW 4.6 mph - N/A   Clear
4:00 PM 27 °F - -1 °F 16%  in 31 mi SW 4.6 mph - -   Clear
4:55 PM 26.6 °F 19.1 °F -2.2 °F 29% 30.36 in - SW 6.9 mph - N/A   Clear
5:55 PM 24.8 °F 17.9 °F -4.0 °F 28% 30.36 in - SW 5.8 mph - N/A   Clear
6:55 PM 24.8 °F 17.9 °F -4.0 °F 28% 30.36 in - SW 5.8 mph - N/A   Clear
7:00 PM 25 °F - -3 °F 15%  in 12 mi SW 5.8 mph - -   Clear
7:55 PM 24.8 °F 17.9 °F 1.4 °F 36% 30.36 in - SW 5.8 mph - N/A   Clear
8:55 PM 24.8 °F 16.9 °F 5.0 °F 43% 30.39 in - SW 6.9 mph - N/A   Clear
9:55 PM 24.8 °F 16.1 °F 8.6 °F 50% 30.39 in - SW 8.1 mph - N/A   Clear
10:55 PM 23.0 °F 14.7 °F 8.6 °F 54% 30.36 in - WSW 6.9 mph - N/A   Clear
11:55 PM 23.0 °F 15.8 °F 8.6 °F 54% 30.39 in - SW 5.8 mph - N/A   Clear